Regional Weather Roundup
Issued by NWS

Home | Current Version | Previous Version | Graphics & Text | Print | Product List | Glossary On
Versions: 1 2 3 4 5 6 7 8 9 10 11 12 13 14 15 16 17 18 19 20 21 22 23 24 25 26 27 28 29 30 31 32 33 34 35 36 37 38 39 40 41 42 43 44 45 46 47 48 49 50
000
ASUS43 KFSD 210802
RWRSD

WEATHER ROUNDUP FOR SOUTH DAKOTA
NATIONAL WEATHER SERVICE SIOUX FALLS SD
200 AM CST SUN DEC 21 2014

NOTE: "FAIR" INDICATES FEW OR NO CLOUDS BELOW 12,000 FEET WITH NO
SIGNIFICANT WEATHER AND/OR OBSTRUCTIONS TO VISIBILITY.


SDZ001>005-009-010-012>017-210900-
NORTHWEST AND NORTH CENTRAL SOUTH DAKOTA

CITY           SKY/WX    TMP DP  RH WIND       PRES   REMARKS
BUFFALO          N/A     28  22  78 E5        29.63F WCI  23
FAITH            N/A     29  23  78 S12       29.74F WCI  19
MOBRIDGE       CLOUDY    26  24  92 SE9       29.74F WCI  17
$$

SDZ012>016-024>037-041>051-057-063-072>074-210900-
SOUTHWEST AND SOUTH CENTRAL SOUTH DAKOTA

CITY           SKY/WX    TMP DP  RH WIND       PRES   REMARKS
RAPID CTY ARPT CLEAR     28  23  81 S5        29.71F WCI  23
PIERRE         CLOUDY    22  20  92 NE6       29.78F WCI  14
CUSTER         CLEAR     29  23  78 W9        29.72F WCI  20
ELLSWORTH AFB  CLEAR     30  24  77 SW7       29.69F WCI  23
PHILIP         CLOUDY    28  23  81 CALM      29.77F
PINE RIDGE     PTCLDY    30  24  78 SW6       29.77F WCI  24
WINNER         FAIR      34  25  69 S5        29.81F WCI  30
$$

SDZ004>011-016>023-039-040-210900-
NORTHEAST SOUTH DAKOTA

CITY           SKY/WX    TMP DP  RH WIND       PRES   REMARKS
ABERDEEN       CLOUDY    30  28  92 S10       29.84F WCI  21
WATERTOWN      CLOUDY    29  28  96 S9        29.85F FOG     WCI  20
SISSETON         N/A     31  29  92 SW14      29.86F WCI  21
$$

SDZ017-020-022-023-036>040-048>070-210900-
SOUTHEAST SOUTH DAKOTA

CITY           SKY/WX    TMP DP  RH WIND       PRES   REMARKS
SIOUX FALLS    FOG       31  30  96 S10       29.91F VSB 1/2 WCI  22
HURON          CLOUDY    31  29  92 S10       29.84F FOG     WCI  22
MITCHELL       CLOUDY    32  31  96 S14       29.87F FOG     WCI  22
YANKTON        CLOUDY    32  30  93 S8        29.91F WCI  25
$$

ABBREVIATIONS USED IN REMARKS
   TC - TEMPERATURE IN CELSIUS
  WCI - WIND CHILL INDEX
   HX - HEAT INDEX
  VSB - VISIBILITY




USA.gov is the U.S. government's official web portal to all federal, state and local government web resources and services.